Showing default

UMBRA-11, 66748

Orbit data source: Space-Track

UMBRA-11, 66748 is a payload satellite owned by Umbra Labs (US) in SSO that was launched on Fri, 28 Nov 2025 UTC via an FALCON 9 launch vehicle from the Air Force Western Test Range (AFWTR). Payload-class satellites include a variety of spacecraft equipped with specific instruments for various scientific and technological missions. These include communications satellites like Starlink; space stations such as the ISS; scientific satellites like the Hubble; Earth observation satellites from companies like Planet Labs, Umbra, and HawkEye 360; GPS; miniature CubeSats for education and research; and military/defense satellites.

Loading next visibility...
Identifier
66748, 2025-276CL
Orbit
SSO
Country
Flag of USUS
Related business
Manufacturer
Umbra Labs
Mission
Operational Commercial Radar Imaging
Bus & Motor
ESPASAT?, Unknown motor
Mass
84 kg wet, 79 kg dry
Launch date (UTC)
2025-11-28 (6 months ago)
Launch vehicle
FALCON 9
Launch site
Air Force Western Test Range (AFWTR)
Object type
Payload
Rocket body
Debris
Shape & HBR
Box + 2 Pan + 1 Dish, 2.0 m
Radar Cross Section
6.513 m²

Expand to show TLE details & history
Last TLE update: 7 hours ago

TLE from 7 hours ago
0 UMBRA-11
1 66748U 25276CL  26144.91565097  .00020423  00000-0  80656-3 0  9991
2 66748  97.4204 219.7086 0003363  85.4636 274.6986 15.25542578 26946
Epoch: 2026-05-24T21:58Z
TLE epoch observation values (Epoch: 2026-05-24T21:58:32.243Z)
Latitude
-0.00006°
Longitude
7.56332°
Altitude
492.066 km
Speed
7.619 km/s
True Right ascension
14h 38m 50s
True Declination
0° 00' 00"
Sunlit
Object was in full shadow at epoch
Visualization orbit readout
Latitude
Unknown
Longitude
Unknown
Altitude
Unknown
Speed
Unknown
Apparent Right ascension
Unknown
Apparent Declination
Unknown
Sunlit
N/A
Visualization observer readout
Local Sidereal Time
14:11:12
Azimuth
Unknown
Elevation
Unknown
Doppler factor
Unknown
Orbital elements
Apogee altitude
488.424 km
Perigee altitude
483.807 km
Semi-major axis
6,864.253 km
Eccentricity
0.00034
Inclination
97.4204°
RAAN
219.7086°
Arg. of periapsis
85.4636°
True anomaly
274.66019°
Mean anomaly
274.6986°
Eccentric anomaly
274.6794°
Mean motion
3.81639 °/min
Orbital period
94.33 mins
BSTAR
0.00080656
Loading maneuver chart data...
Computing Atmospheric mass density...
Loading historical data...
Loading historical data...
Loading historical data...
Loading historical data...
Loading historical data...
Loading historical data...
Loading historical data...

Documentation

Showing up to 5 results
|